N8QQ Weather Reports


Display with metric or nautical units.
time (UTC)temp
F
wind
direction
speed
MPH
gust
MPH
rain 1hr
in
rain 24hr
in
rain mn
in
humidity
%
barometer
mb
20260510013031 63 0.0 0.0 0.00 0.12 0.12 69 1004.1
20260510012031 64 0.0 0.0 0.00 0.12 0.12 67 1004.0
20260510011034 65 0.0 0.0 0.00 0.12 0.12 66 1004.0
20260510010038 66 0.0 0.0 0.00 0.12 0.12 64 1003.9
20260510005021 67 0.0 0.0 0.00 0.12 0.12 60 1003.7
20260510004024 68 0.0 0.0 0.00 0.12 0.12 58 1003.4
20260510003027 69 202 0.0 1.0 0.00 0.12 0.12 55 1003.2
20260510002025 70 65 0.0 2.0 0.00 0.12 0.12 54 1003.0
20260510001021 71 206 2.0 6.0 0.00 0.12 0.12 53 1002.9
20260510000018 72 228 0.0 2.0 0.00 0.12 0.12 53 1002.8
20260509235015 72 217 1.0 4.0 0.00 0.12 0.12 52 1002.8
20260509234018 73 256 2.0 4.0 0.00 0.12 0.12 51 1002.7
20260509233021 73 209 2.0 4.0 0.00 0.12 0.12 50 1002.7
20260509232025 74 155 3.0 7.0 0.00 0.12 0.12 48 1002.6
20260509231048 74 207 3.0 6.0 0.00 0.12 0.12 48 1002.5
20260509230112 75 161 2.0 5.0 0.00 0.12 0.12 49 1002.5
20260509225017 76 179 3.0 7.0 0.00 0.12 0.12 49 1002.6
20260509224019 76 205 2.0 6.0 0.00 0.12 0.12 50 1002.4
20260509223022 77 193 2.0 4.0 0.00 0.12 0.12 49 1002.5
20260509222026 77 176 2.0 5.0 0.00 0.12 0.12 50 1002.6
20260509221028 77 214 2.0 5.0 0.00 0.12 0.12 50 1002.6
20260509220111 76 263 3.0 5.0 0.00 0.12 0.12 50 1002.6
20260509215017 77 228 2.0 4.0 0.00 0.12 0.12 50 1002.7
20260509214020 77 237 3.0 4.0 0.00 0.12 0.12 50 1002.6
20260509213023 77 254 2.0 5.0 0.00 0.12 0.12 52 1002.9
20260509212046 78 207 2.0 5.0 0.00 0.12 0.12 52 1002.7
20260509211029 76 83 1.0 4.0 0.00 0.12 0.12 53 1002.7
20260509210027 77 189 3.0 5.0 0.00 0.12 0.12 52 1002.8
20260509205018 77 218 2.0 5.0 0.00 0.12 0.12 53 1002.7
20260509204021 76 193 1.0 4.0 0.00 0.12 0.12 52 1002.8
20260509203039 77 184 3.0 5.0 0.00 0.12 0.12 52 1003.0
20260509202015 76 218 2.0 6.0 0.00 0.12 0.12 55 1003.1
20260509201030 76 218 2.0 4.0 0.00 0.12 0.12 54 1003.2
20260509200015 76 267 1.0 4.0 0.00 0.12 0.12 57 1003.2
20260509195019 76 210 2.0 5.0 0.00 0.12 0.12 55 1003.4
20260509194022 75 146 1.0 3.0 0.00 0.12 0.12 57 1003.5
20260509193025 75 216 3.0 4.0 0.00 0.12 0.12 55 1003.6
20260509192028 76 208 2.0 4.0 0.00 0.12 0.12 58 1003.7
20260509191051 75 198 3.0 5.0 0.00 0.12 0.12 56 1003.7
20260509190016 75 186 3.0 5.0 0.00 0.12 0.12 58 1003.7
20260509185020 74 185 3.0 8.0 0.00 0.12 0.12 58 1003.8
20260509184043 74 320 3.0 5.0 0.00 0.12 0.12 60 1003.9
20260509183107 73 198 3.0 7.0 0.00 0.12 0.12 62 1003.8
20260509182028 73 95 2.0 4.0 0.00 0.12 0.12 61 1004.1
20260509181033 73 269 2.0 4.0 0.00 0.12 0.12 63 1004.0
20260509180017 70 177 3.0 6.0 0.00 0.12 0.12 64 1003.8
20260509175020 71 159 2.0 6.0 0.00 0.12 0.12 65 1003.7
20260509174023 71 243 1.0 3.0 0.00 0.12 0.12 64 1004.0
20260509173046 70 215 2.0 4.0 0.00 0.12 0.12 65 1004.1
20260509172023 70 150 3.0 5.0 0.00 0.12 0.12 63 1004.1
20260509171020 70 162 2.0 4.0 0.00 0.12 0.12 66 1004.1
20260509170018 72 207 3.0 6.0 0.00 0.12 0.12 64 1004.1
20260509165015 71 216 2.0 5.0 0.00 0.12 0.12 66 1004.2
20260509164024 70 215 2.0 5.0 0.00 0.12 0.12 67 1004.3
20260509163028 67 196 2.0 5.0 0.00 0.12 0.12 70 1004.3
20260509162036 67 230 3.0 5.0 0.00 0.12 0.12 69 1004.1
20260509161035 69 131 1.0 3.0 0.00 0.12 0.12 70 1004.1
20260509160018 70 194 1.0 3.0 0.00 0.12 0.12 71 1004.0
20260509155021 67 182 2.0 4.0 0.00 0.12 0.12 75 1004.0
20260509154024 66 22 0.0 1.0 0.00 0.12 0.12 80 1004.0
20260509153027 67 196 1.0 3.0 0.00 0.12 0.12 78 1003.9
20260509152030 66 209 2.0 4.0 0.00 0.12 0.12 80 1003.9
20260509151037 66 69 1.0 3.0 0.00 0.12 0.12 79 1003.8
20260509150038 65 52 1.0 4.0 0.00 0.12 0.12 81 1003.7
20260509145042 66 2 1.0 3.0 0.00 0.12 0.12 82 1003.6
20260509144045 65 247 0.0 1.0 0.00 0.12 0.12 84 1003.6
20260509143028 64 80 1.0 5.0 0.00 0.12 0.12 85 1003.6
20260509142032 65 247 0.0 2.0 0.00 0.12 0.12 88 1003.6
20260509141036 63 124 0.0 4.0 0.00 0.12 0.12 90 1003.6
20260509140019 62 0.0 0.0 0.00 0.12 0.12 93 1003.6
20260509135043 60 131 0.0 3.0 0.00 0.12 0.12 98 1003.6
20260509134040 57 0.0 0.0 0.00 0.12 0.12 99 1003.6
20260509133018 56 40 0.0 1.0 0.00 0.12 0.12 99 1003.5
20260509132032 56 0.0 0.0 0.00 0.12 0.12 99 1003.3
20260509131017 55 202 0.0 3.0 0.00 0.12 0.12 99 1003.3
20260509130020 55 157 0.0 2.0 0.01 0.12 0.12 99 1003.3
20260509125023 55 0.0 0.0 0.01 0.12 0.12 99 1003.2
20260509124026 55 0.0 0.0 0.01 0.12 0.12 99 1003.4
20260509123050 55 0.0 0.0 0.01 0.12 0.12 99 1003.6
20260509122033 55 0.0 0.0 0.01 0.12 0.12 99 1003.7
20260509121039 55 0.0 0.0 0.01 0.12 0.12 99 1003.7
20260509120021 55 0.0 0.0 0.00 0.10 0.10 99 1003.6
20260509115024 54 0.0 0.0 0.00 0.10 0.10 99 1003.4
20260509114047 54 0.0 0.0 0.00 0.10 0.10 99 1003.3
20260509113032 54 0.0 0.0 0.00 0.10 0.10 99 1003.3
20260509112015 54 0.0 0.0 0.00 0.10 0.10 99 1003.3
20260509111039 54 0.0 0.0 0.01 0.10 0.10 99 1003.2
20260509110041 54 0.0 0.0 0.03 0.10 0.10 99 1003.0
20260509105024 54 0.0 0.0 0.03 0.10 0.10 99 1003.3
20260509104027 54 0.0 0.0 0.03 0.10 0.10 99 1003.6
20260509103044 54 0.0 0.0 0.03 0.09 0.09 99 1003.7
20260509102015 54 0.0 0.0 0.03 0.09 0.09 99 1003.7
20260509101040 54 0.0 0.0 0.03 0.09 0.09 99 1003.8
20260509100016 54 0.0 0.0 0.01 0.07 0.07 99 1003.8
20260509095025 54 0.0 0.0 0.03 0.07 0.07 99 1003.8
20260509094028 54 0.0 0.0 0.02 0.06 0.06 99 1004.0
20260509093032 54 0.0 0.0 0.02 0.06 0.06 99 1003.8
20260509092016 54 0.0 0.0 0.02 0.06 0.06 99 1003.9
20260509091020 54 0.0 0.0 0.02 0.06 0.06 99 1004.0
20260509090023 54 0.0 0.0 0.02 0.06 0.06 99 1004.1
20260509085026 54 0.0 0.0 0.01 0.04 0.04 99 1004.3
20260509084110 54 0.0 0.0 0.01 0.04 0.04 99 1004.3
20260509083032 54 0.0 0.0 0.02 0.03 0.03 99 1004.5
20260509082017 54 0.0 0.0 0.02 0.03 0.03 99 1004.5
20260509081020 54 0.0 0.0 0.02 0.03 0.03 99 1004.5
20260509080024 54 0.0 0.0 0.02 0.03 0.03 99 1004.4
20260509075108 54 0.0 0.0 0.01 0.03 0.03 99 1004.6
20260509074051 54 0.0 0.0 0.02 0.03 0.03 99 1004.2
20260509073033 54 0.0 0.0 0.00 0.01 0.01 99 1004.3
20260509072038 54 0.0 0.0 0.01 0.01 0.01 99 1004.6
20260509071021 54 0.0 0.0 0.01 0.01 0.01 99 1004.8
20260509070024 54 0.0 0.0 0.01 0.01 0.01 99 1004.9
20260509065041 54 0.0 0.0 0.01 0.01 0.01 99 1005.1
20260509064018 54 0.0 0.0 0.00 0.00 0.00 99 1005.0
20260509063015 54 0.0 0.0 0.00 0.00 0.00 99 1005.3
20260509062019 54 196 0.0 2.0 0.00 0.00 0.00 99 1005.2
20260509061021 54 225 0.0 1.0 0.00 0.00 0.00 98 1005.1
20260509060025 54 0.0 0.0 0.00 0.00 0.00 97 1005.0
20260509055049 54 0.0 0.0 0.00 0.00 0.00 98 1004.9
20260509054033 54 0.0 0.0 0.00 0.00 0.00 97 1004.8
20260509053018 54 0.0 0.0 0.00 0.00 0.00 97 1004.9
20260509052019 55 0.0 0.0 0.00 0.00 0.00 97 1005.0
20260509051023 55 100 0.0 2.0 0.00 0.00 0.00 97 1005.0
20260509050026 55 117 0.0 2.0 0.00 0.00 0.00 96 1005.0
20260509045049 55 146 0.0 2.0 0.00 0.00 0.00 95 1005.1
20260509044027 55 70 0.0 3.0 0.00 0.00 0.00 94 1005.3
20260509043030 55 238 0.0 2.0 0.00 0.00 0.00 93 1005.3
20260509042033 55 0.0 0.0 0.00 0.00 0.00 92 1005.3
20260509041019 56 236 0.0 2.0 0.00 0.00 0.00 91 1005.3
20260509040026 56 143 0.0 1.0 0.00 0.00 0.00 90 1005.4
20260509035024 56 67 0.0 2.0 0.00 0.00 0.00 90 1005.4
20260509034027 56 174 0.0 2.0 0.00 0.00 0.00 89 1005.6
20260509033026 56 173 1.0 2.0 0.00 0.00 0.00 88 1005.6
20260509032037 56 229 1.0 2.0 0.00 0.00 0.00 88 1005.6
20260509031020 57 113 1.0 2.0 0.00 0.00 0.00 87 1005.7
20260509030036 57 138 2.0 3.0 0.00 0.00 0.00 86 1005.8
20260509025025 57 259 2.0 6.0 0.00 0.00 0.00 85 1005.9
20260509024049 57 172 2.0 4.0 0.00 0.00 0.00 84 1005.6
20260509023031 58 170 3.0 5.0 0.00 0.00 0.00 83 1005.7
20260509022016 59 266 0.0 2.0 0.00 0.00 0.00 79 1005.3
20260509021120 59 246 1.0 2.0 0.00 0.00 0.00 75 1005.1
20260509020023 59 0.0 0.0 0.00 0.00 0.00 72 1005.0
20260509015026 59 0.0 0.0 0.00 0.00 0.00 71 1004.8
20260509014049 60 0.0 0.0 0.00 0.00 0.00 72 1004.9